Content
SEND FEEDBACK

Daily
Averages
Monthly
Summary
United States of America

COULEE DAM, WASHINGTON


Home > North America > United States > Washington
Elevation: 3490 feet     Latitude: 48 26N     Longitude: 119 06W

WEATHER
 
SELECT A DAY
Number of Records: 168,414;   Date Range: 2/17/98 - 11/26/14
 
SHARE

PRINT THIS DATA

[ ← Previous Day ]
WEATHER ALMANAC - FEBRUARY 13, 2013
[ Next Day → ]
[ °C ]   °F
Weather ElementAverageHighLow
Temperature30.6 °F39.9 °F (3:53 pm)21 °F (11:53 pm)
Dewpoint25.3 °F28.9 °F (11:53 am)19 °F (10:53 pm)
Humidity81.3 %92 % (6:53 am)65 % (3:53 pm)
Barometer30.28 in30.43 in (11:53 pm)30.13 in (1:53 am)
Wind Speed2 mph10.4 mph (3:53 am)
Weather ElementAverage
Visibility10 mi
Wind DirectionENE (58.3 °)

Weather ElementTotal
Precipitation---
Heating Degree Days34.6 (Base 65)
Averaged from 23 records on February 13, 2013
WEATHER CONDITIONS BREAKOUT
WIND DIRECTION BREAKOUT
WEATHER BY HOUR - FEBRUARY 13, 2013
[ °C ]   °F
Local TimeTemperatureDewpointHumidityBarometerVisibilityWind DirectionWind SpeedGust SpeedPrecipitationEventsConditions
1:53 AM33.1 °F27.0 °F78 %30.13 in10.0 miNNE (20°)8.1 mphClear
2:53 AM30.9 °F26.1 °F82 %30.15 in10.0 miNNW (340°)9.2 mphClear
3:53 AM30.0 °F25.0 °F82 %30.17 in10.0 miNorth (360°)10.4 mphClear
4:53 AM28.0 °F25.0 °F88 %30.20 in10.0 miNNE (30°)9.2 mphClear
5:53 AM27.0 °F24.1 °F89 %30.21 in10.0 miWNW (290°)3.5 mphClear
6:53 AM23.0 °F21.0 °F92 %30.22 in10.0 miCalmClear
7:53 AM25.0 °F21.9 °F88 %30.25 in10.0 miCalmClear
8:53 AM30.0 °F26.1 °F85 %30.27 in10.0 miCalmClear
9:53 AM34.0 °F28.0 °F79 %30.28 in10.0 miCalmClear
10:53 AM36.0 °F28.0 °F73 %30.28 in10.0 miCalmClear
11:53 AM37.9 °F28.9 °F70 %30.28 in10.0 miCalmClear
12:53 PM37.9 °F28.9 °F70 %30.27 in10.0 miCalmClear
1:53 PM37.9 °F28.9 °F70 %30.28 in10.0 miCalmPartly Cloudy
2:53 PM37.9 °F28.9 °F70 %30.29 in10.0 miCalmOvercast
3:53 PM39.9 °F28.9 °F65 %30.29 in10.0 miCalmMostly Cloudy
4:53 PM37.9 °F28.9 °F70 %30.30 in10.0 miCalmClear
5:53 PM30.9 °F26.1 °F82 %30.33 in10.0 miCalmClear
6:53 PM28.9 °F25.0 °F85 %30.35 in10.0 miCalmClear
7:53 PM25.0 °F23.0 °F92 %30.37 in10.0 miCalmClear
8:53 PM25.0 °F23.0 °F92 %30.38 in10.0 miWNW (300°)4.6 mphClear
9:53 PM25.0 °F21.9 °F88 %30.39 in10.0 miCalmClear
10:53 PM21.9 °F19.0 °F89 %30.40 in10.0 miCalmClear
11:53 PM21.0 °F19.0 °F92 %30.43 in9.0 miCalmClear
Hourly data recorded from KOMK, located miles away from Coulee Dam, Washington







STORIES FROM OUR PARTNERS